User: anonymous   Login
Location: Unspecified
(0.0000°N, 0.0000°E)
Time: 16:08:46
(UTC+00:00)
Language:

MOZHAYETS 4 - Orbit

View from above orbital plane
View from above orbital plane
View from above satellite
View from above satellite

Ground track
Ground track

The orbit data is extracted from the following two-line orbital elements,

1 27939U 03042A   18112.23193260  .00000161  00000-0  37364-4 0  9993
2 27939  97.9811 252.8399 0012166 331.5089  79.1434 14.66676979778618
Epoch (UTC): 22 April 2018 05:33:58
Eccentricity: 0.0012166
inclination: 97.9811°
perigee height: 663 km
apogee height: 680 km
right ascension of ascending node: 252.8399°
argument of perigee: 331.5089°
revolutions per day: 14.66676979
mean anomaly at epoch: 79.1434°
orbit number at epoch: 77861

The dashed part of the orbit path shows where the satellite is in the earth's shadow,  

DLR